Blue Grass Airport

Airport
ICAO code: 
KLEX
IATA Code: 
LEX
Summary
ICAO Region: 
NAM
Territory: 
Location: 
Lexington, KY
Serving: 
Lexington
Elevation: 
979 ft
Coordinates: 
Aerial View: 
38° 2' 8.266" N, 84° 36' 21.287" W
Metar
Observation
KLEX 210454Z 05012KT 10SM OVC036 M07/M13 A3044 RMK AO2 SLP321 T10721128 410111078 $
Station
Lexington, Blue Grass Airport
Date/Time
2022-01-21 04:54:00
Wind direction
50°
Wind speed
12 kts
Lowest cloud amount
overcast
Temperature
-7.2°C
Dew point
-12.8°C
Humidity
64%
Weather condition
n/a

Blue Grass Airport is a public airport located in Fayette County, Kentucky, United States, 4 miles west of the central business district of the City of Lexington. There was a second westerly runway at the time of the CRJ take-off accident in 2006.

Climatology

Humid “subtropical” climate (Köppen climate classification Cfa)

Runways

Designator Length Width Surface Rops
4/22 2135 46 ASP Yes/Yes
Airport map: 
Aerial View: 

Accidents and Serious Incidents at or in the vicinity of KLEX

SKYbrary Partners:

Safety knowledge contributed by: